Date,TemperatureHighF,TemperatureAvgF,TemperatureLowF,DewpointHighF,DewpointAvgF,DewpointLowF,HumidityHigh,HumidityAvg,HumidityLow,PressureMaxIn,PressureMinIn,WindSpeedMaxMPH,WindSpeedAvgMPH,GustSpeedMaxMPH,PrecipitationSumIn
2013-1-1,52,48,44,50,37,29,96,69,50,30.16,29.99,12,2,12,0.21
2013-1-2,51,45,40,50,43,38,96,90,79,30.25,29.96,13,3,13,0.30
2013-1-3,45,41,34,38,37,33,95,85,68,30.32,30.18,10,2,10,0.00
2013-1-4,51,40,30,33,27,23,96,66,34,30.37,30.25,11,3,15,0.00
2013-1-5,52,40,29,29,25,23,79,56,35,30.45,30.32,9,2,9,0.00
2013-1-6,48,44,37,42,36,29,96,76,55,30.32,30.11,5,1,7,0.01
2013-1-7,53,43,35,35,33,31,91,68,46,30.49,30.23,12,2,16,0.00
2013-1-8,57,45,35,43,37,32,91,73,52,30.52,30.42,8,1,8,0.00
2013-1-9,68,54,41,52,46,38,92,76,54,30.50,30.40,10,1,10,0.00
2013-1-10,63,56,50,51,49,38,90,78,56,30.57,30.45,18,2,18,0.00
2013-1-11,53,49,42,52,44,33,97,85,53,30.48,30.20,15,2,15,0.33
2013-1-12,74,58,50,64,56,49,98,92,72,30.22,30.14,9,1,9,0.01
2013-1-13,76,63,54,63,58,53,97,85,61,30.18,30.09,13,2,13,0.01
2013-1-14,73,65,57,64,60,56,95,85,73,30.19,30.10,8,2,10,0.00
2013-1-15,64,49,46,61,47,44,97,95,85,30.26,30.09,17,6,17,0.00
2013-1-16,51,47,45,50,47,44,98,97,97,30.11,30.02,8,2,8,0.20
2013-1-17,52,47,34,52,46,33,98,97,94,30.20,29.92,38,7,38,0.62
2013-1-18,47,37,31,36,30,23,98,78,40,30.60,30.18,10,2,11,0.06
2013-1-19,56,42,29,37,29,25,91,62,34,30.57,30.21,11,2,11,0.00
2013-1-20,65,51,41,38,34,30,73,55,32,30.21,30.02,16,3,16,0.00
2013-1-21,60,48,34,33,30,21,84,51,31,30.12,29.92,15,3,15,0.00
2013-1-22,44,35,28,23,9,-2,62,35,17,30.34,30.00,16,4,16,0.00
2013-1-23,42,31,20,19,11,3,79,45,29,30.45,30.12,16,2,16,0.00
2013-1-24,37,33,25,28,16,4,73,52,26,30.57,30.02,25,6,25,0.00
2013-1-25,27,24,21,25,15,5,92,70,43,30.59,30.18,9,1,9,0.00
2013-1-26,43,31,25,33,28,24,96,90,60,30.47,30.16,9,1,9,0.27
2013-1-27,42,33,27,29,28,26,96,83,59,30.66,30.45,15,2,15,0.01
2013-1-28,54,43,33,49,37,28,90,79,68,30.58,30.29,11,2,11,0.05
2013-1-29,74,60,49,59,53,46,92,78,55,30.30,30.11,16,4,16,0.00
2013-1-30,67,63,60,63,60,57,95,92,86,30.11,29.94,23,5,23,0.00
2013-2-2,46,35,21,38,16,8,85,47,26,30.47,30.09,18,3,25,0.00
2013-2-3,50,43,36,37,32,26,90,67,42,30.09,29.90,12,4,18,0.19
2013-2-4,49,39,28,28,25,22,87,58,36,30.20,30.03,10,2,10,0.00
2013-2-5,62,48,37,39,34,28,81,59,37,30.08,29.92,17,3,17,0.00
2013-2-6,64,51,39,37,31,22,81,50,22,30.32,30.01,14,3,14,0.00
2013-2-7,48,43,38,43,39,34,95,85,68,30.36,30.01,19,7,19,0.28
2013-2-8,55,44,40,46,41,29,95,90,57,30.10,29.83,19,8,24,0.43
2013-2-9,54,43,34,30,24,18,81,51,25,30.41,30.09,16,3,16,0.00
2013-2-10,54,42,30,41,24,20,85,50,28,30.54,30.26,10,3,10,0.03
2013-2-11,49,47,45,46,44,41,91,89,85,30.26,30.20,7,2,7,0.03
2013-2-12,61,55,47,54,38,27,94,58,28,30.12,29.94,9,3,13,0.00
2013-2-13,51,47,44,47,44,36,96,90,57,30.00,29.65,16,3,16,0.09
2013-2-14,51,43,35,38,34,31,90,71,50,30.12,29.87,8,2,10,0.00
2013-2-15,62,48,33,40,34,31,92,63,32,30.14,29.97,10,1,10,0.00
2013-2-16,48,37,31,37,33,26,95,84,62,30.00,29.86,12,4,12,0.16
2013-2-17,39,31,26,26,16,8,81,54,28,30.35,29.97,23,4,23,0.00
2013-2-18,52,37,21,27,18,10,89,51,26,30.48,30.32,12,2,12,0.01
2013-2-19,53,44,35,50,39,26,94,83,64,30.32,29.91,18,5,18,0.07
2013-2-20,53,43,34,42,21,14,91,44,23,30.18,30.01,17,3,17,0.00
2013-2-21,57,43,28,24,19,15,82,42,20,30.30,30.16,13,3,15,0.00
2013-2-22,44,36,33,36,31,23,96,83,44,30.40,30.18,15,4,16,0.47
2013-2-23,44,40,37,43,39,36,96,96,95,30.18,29.88,10,2,10,0.78
2013-2-24,64,47,43,47,42,27,97,86,29,30.08,29.83,15,2,15,0.02
2013-2-25,48,39,34,30,25,21,69,58,45,30.28,30.08,29,6,29,0.00
2013-2-26,61,44,36,60,40,27,97,86,65,30.18,29.60,27,10,32,1.03
2013-2-27,60,50,43,46,41,37,96,74,50,29.84,29.67,24,5,24,0.00
2013-2-28,50,44,39,40,33,27,90,66,42,29.90,29.74,13,3,15,0.00
2013-3-1,48,41,32,32,29,27,83,63,44,29.96,29.88,16,3,16,0.00
2013-3-2,48,40,31,30,27,21,89,61,43,29.97,29.85,14,2,14,0.00
2013-3-3,46,36,28,24,21,18,74,55,38,30.03,29.89,18,3,18,0.00
2013-3-4,51,38,26,22,18,14,75,47,24,30.17,30.02,17,2,17,0.00
2013-3-5,50,45,39,45,34,18,96,70,38,30.13,29.60,18,3,18,0.33
2013-3-6,50,44,39,49,34,26,97,69,50,30.06,29.54,21,7,24,0.00
2013-3-7,52,43,35,33,30,27,79,61,45,30.28,30.06,16,4,16,0.00
2013-3-8,56,44,31,30,26,23,80,52,31,30.33,30.19,20,5,20,0.00
2013-3-9,63,49,36,32,28,26,70,47,26,30.38,30.27,13,3,13,0.00
2013-3-10,68,54,40,32,27,18,69,39,17,30.37,30.25,10,2,10,0.00
2013-3-11,69,56,42,55,45,25,88,66,37,30.29,29.97,18,3,18,0.00
2013-3-12,72,63,52,62,57,34,95,83,46,29.99,29.77,22,5,22,0.35
2013-3-13,57,48,38,34,28,20,83,47,26,30.17,29.96,30,5,30,0.00
2013-3-14,54,41,31,26,20,17,63,43,26,30.30,30.15,16,4,19,0.00
2013-3-15,62,48,31,36,28,20,73,46,32,30.24,29.95,21,4,21,0.00
2013-3-16,78,64,51,49,44,36,64,49,34,29.95,29.70,23,5,23,0.00
2013-3-17,67,55,42,53,44,38,94,71,43,30.20,29.86,25,7,25,0.00
2013-3-18,45,41,38,43,40,37,96,94,89,30.24,29.93,20,5,20,0.21
2013-3-19,68,52,42,48,36,15,97,63,20,30.05,29.86,25,4,25,0.02
2013-3-20,56,48,43,25,15,9,48,27,20,30.16,29.82,13,3,13,0.00
2013-3-21,46,41,32,31,20,12,72,45,28,30.02,29.76,16,5,19,0.00
2013-3-22,52,34,26,23,15,12,65,46,23,30.14,30.02,21,3,21,0.00
2013-3-23,56,47,41,32,26,21,63,44,33,30.10,29.95,8,2,8,0.00
2013-3-24,44,40,36,39,35,29,94,84,62,29.99,29.60,25,6,25,0.36
2013-3-25,48,41,36,38,31,23,96,72,40,29.87,29.60,21,5,23,0.00
2013-3-26,49,42,35,30,28,26,72,56,45,30.16,29.87,16,4,16,0.00
2013-3-27,53,43,34,29,25,21,79,53,31,30.28,30.16,22,4,22,0.00
2013-3-28,57,44,32,29,25,24,77,50,29,30.34,30.20,15,4,15,0.00
2013-3-29,60,46,34,32,27,24,83,51,26,30.38,30.23,13,2,20,0.00
2013-3-30,65,55,46,45,38,28,72,52,40,30.28,30.13,7,2,7,0.00
2013-3-31,69,58,48,57,51,42,95,79,63,30.15,29.84,23,4,23,0.30
2013-4-1,72,62,56,55,48,38,96,65,30,29.97,29.84,21,3,21,0.11
2013-4-2,61,52,43,40,30,26,71,46,29,30.19,29.97,12,4,16,0.00
2013-4-3,62,51,43,33,22,17,53,33,22,30.33,30.16,17,5,17,0.00
2013-4-4,51,44,39,40,32,23,95,65,35,30.39,29.94,26,8,26,0.79
2013-4-5,65,49,40,48,43,38,96,83,53,30.06,29.91,16,3,16,0.02
2013-4-6,66,55,46,46,34,23,91,49,28,30.32,30.06,22,5,22,0.00
2013-4-7,72,56,38,50,40,34,90,58,34,30.33,30.15,18,3,18,0.00
2013-4-8,79,66,54,57,53,50,95,67,41,30.22,30.08,17,4,17,0.00
2013-4-9,84,71,58,60,58,56,95,66,40,30.22,30.08,17,4,17,0.00
2013-4-10,87,69,62,62,59,58,88,72,40,30.13,29.96,16,4,16,0.00
2013-4-11,82,72,62,68,61,58,94,72,47,30.02,29.82,15,4,19,0.00
2013-4-12,81,72,66,69,65,50,95,80,47,29.85,29.64,16,6,21,0.46
2013-4-13,76,65,55,51,42,39,58,44,27,30.03,29.78,18,3,18,0.00
2013-4-14,80,67,51,53,46,37,88,52,23,30.13,30.03,13,2,13,0.00
2013-4-15,71,66,61,59,56,50,88,73,57,30.23,30.03,22,4,22,0.01
2013-4-16,78,66,58,62,59,57,96,78,51,30.33,30.22,10,2,10,0.00
2013-4-17,82,71,59,65,62,58,97,76,55,30.27,30.13,11,2,11,0.00
2013-4-18,80,70,61,63,61,58,94,73,53,30.22,30.06,13,3,13,0.00
2013-4-19,83,72,65,69,66,62,95,83,58,30.08,29.75,28,5,28,0.59
2013-4-20,65,56,49,64,42,34,95,61,33,30.31,29.86,21,3,21,0.08
2013-4-21,61,52,43,43,41,38,93,69,46,30.52,30.31,23,6,23,0.00
2013-4-22,60,50,39,46,40,33,86,70,47,30.51,30.29,19,7,19,0.00
2013-4-23,69,55,48,52,48,45,92,78,53,30.31,30.17,12,3,15,0.00
2013-4-24,77,64,49,57,53,48,96,71,47,30.20,30.01,22,3,22,0.00
2013-4-25,73,63,55,58,48,41,86,61,36,30.30,30.05,13,2,13,0.00
2013-4-26,73,62,54,53,44,33,95,58,25,30.45,30.30,18,2,18,0.00
2013-4-27,73,63,53,52,46,40,79,56,33,30.41,30.29,9,1,9,0.00
2013-4-28,63,59,55,56,51,43,96,75,61,30.30,30.13,10,2,10,0.70
2013-4-29,74,64,56,65,60,54,97,88,65,30.14,29.99,11,1,11,1.16
2013-4-30,66,62,58,61,59,55,97,91,79,30.20,30.02,12,3,12,0.00
2013-5-1,61,59,58,58,57,56,95,91,86,30.34,30.18,19,6,19,0.00
2013-5-2,64,59,56,58,56,53,95,89,80,30.35,30.28,25,6,25,0.00
2013-5-3,70,59,51,55,50,44,93,75,52,30.29,30.19,24,8,24,0.00
2013-5-4,65,56,50,53,49,44,89,78,62,30.23,30.09,25,10,25,0.00
2013-5-5,61,56,50,57,52,47,91,87,82,30.12,30.00,24,10,26,0.00
2013-5-6,73,59,57,66,57,54,96,92,73,30.03,29.85,21,7,22,1.06
2013-5-7,72,60,52,58,52,48,97,78,44,29.98,29.88,13,2,14,0.00
2013-5-8,56,55,54,52,52,51,93,90,88,29.99,29.96,0,0,0,0.00
2013-5-13,54,53,52,43,41,40,69,63,59,30.20,30.18,3,1,4,0.00
2013-5-14,72,59,42,45,40,33,89,53,30,30.30,30.12,11,2,18,0.00
2013-5-15,88,70,55,63,54,43,82,60,39,30.12,29.93,11,3,15,0.25
2013-5-16,85,76,68,64,61,56,77,61,39,30.01,29.92,18,3,18,0.00
2013-5-17,90,77,66,66,62,58,89,63,38,30.10,30.00,9,2,9,0.00
2013-5-18,82,72,65,70,65,59,94,77,52,30.18,30.09,14,2,14,0.09
2013-5-19,79,71,67,70,67,65,97,89,67,30.18,30.08,16,1,16,0.35
2013-5-20,78,71,68,71,68,66,97,91,77,30.15,30.06,13,2,13,0.38
2013-5-21,84,73,69,74,69,67,96,88,66,30.08,29.98,11,2,11,0.13
2013-5-22,85,72,68,70,67,65,96,86,55,30.06,29.94,16,3,16,0.00
2013-5-23,81,72,69,72,68,66,96,89,65,29.99,29.85,13,2,13,0.51
2013-5-24,71,66,63,68,63,59,96,91,65,29.97,29.83,12,2,12,0.00
2013-5-25,67,61,58,53,50,44,81,68,55,30.23,30.18,2,0,3,0.00
2013-5-26,75,63,54,53,46,40,77,56,36,30.32,30.21,9,2,15,0.00
2013-5-27,82,66,54,58,51,46,87,62,32,30.32,30.19,10,1,17,0.00
2013-5-28,85,73,61,68,63,58,92,72,50,30.29,30.17,13,2,13,0.00
2013-5-29,86,75,64,66,64,62,94,71,48,30.28,30.18,12,2,12,0.00
2013-5-30,88,76,64,69,64,59,94,69,44,30.30,30.20,12,2,12,0.00
2013-5-31,89,78,67,70,67,64,95,72,47,30.25,30.12,13,2,13,0.00
2013-6-1,89,78,67,69,67,64,95,72,45,30.18,30.05,14,3,14,0.00
2013-6-2,88,77,68,70,67,64,93,73,45,30.10,29.92,11,3,19,0.00
2013-6-3,83,74,66,74,70,64,96,89,70,29.99,29.85,14,2,14,0.64
2013-6-4,79,72,65,67,65,61,96,79,60,30.12,29.95,23,4,23,0.01
2013-6-5,82,72,64,64,60,56,92,68,43,30.16,30.03,17,5,17,0.00
2013-6-6,76,71,67,72,66,59,96,85,63,30.07,29.86,13,4,16,0.78
2013-6-7,77,71,69,75,70,68,97,95,90,29.88,29.46,17,4,17,2.81
2013-6-8,84,74,68,73,70,67,97,86,64,30.12,29.85,12,2,12,0.11
2013-6-9,88,77,69,74,70,68,96,80,56,30.19,30.08,11,1,11,0.12
2013-6-10,82,75,71,76,72,69,96,91,76,30.13,29.93,21,3,21,1.59
2013-6-11,85,76,70,70,68,65,94,77,52,29.99,29.92,16,4,16,0.00
2013-6-12,90,78,69,75,68,65,89,73,57,30.01,29.88,14,3,14,0.00
2013-6-13,95,80,70,77,71,63,92,76,42,29.89,29.63,17,4,17,0.11
2013-6-14,80,69,64,66,61,57,89,77,47,30.04,29.75,11,2,11,0.00
2013-6-15,85,73,62,64,60,57,88,67,44,30.16,30.04,12,2,12,0.00
2013-6-16,86,76,64,69,63,56,79,65,54,30.17,30.03,18,3,18,0.00
2013-6-17,87,76,70,73,68,64,89,75,56,30.07,29.95,10,2,11,0.00
2013-6-18,85,75,69,74,70,68,96,86,66,30.00,29.78,16,2,16,1.60
2013-6-19,79,73,66,69,66,64,96,82,64,30.15,29.89,16,3,16,0.00
2013-6-20,81,72,65,67,62,56,95,72,53,30.27,30.14,19,4,19,0.00
2013-6-21,82,72,59,68,59,49,90,65,39,30.28,30.20,16,4,16,0.00
2013-6-22,78,73,70,71,69,68,95,89,77,30.23,30.14,16,4,16,0.03
2013-6-23,87,76,69,75,71,68,96,86,64,30.24,30.15,10,1,10,0.13
2013-6-24,85,77,71,76,72,70,97,87,70,30.24,30.12,11,2,12,0.02
2013-6-25,87,75,70,76,71,68,95,86,64,30.17,30.04,16,2,16,0.10
2013-6-26,88,73,69,76,70,66,97,92,65,30.07,29.93,16,2,16,0.23
2013-6-27,90,77,68,77,72,66,97,85,57,29.95,29.75,15,3,15,0.01
2013-6-28,91,79,71,76,72,69,96,81,55,29.78,29.61,13,3,27,0.83
2013-6-29,86,76,69,75,72,68,98,86,66,29.76,29.64,26,2,26,0.76
2013-6-30,86,77,71,76,72,68,96,87,68,29.90,29.75,13,2,15,0.22
2013-7-1,83,76,70,76,72,69,97,89,74,30.03,29.87,17,2,17,1.34
2013-7-2,78,73,71,74,72,69,96,95,88,30.22,30.02,11,2,11,0.76
2013-7-3,86,78,73,77,74,71,97,89,71,30.28,30.19,12,2,12,0.00
2013-7-4,90,80,73,77,73,68,96,80,52,30.31,30.21,17,2,17,0.01
2013-7-5,90,80,72,76,73,71,96,81,58,30.31,30.19,11,2,11,0.00
2013-7-6,90,79,73,75,73,70,97,81,57,30.28,30.15,10,2,10,0.00
2013-7-7,90,79,70,75,72,69,96,80,59,30.23,30.09,10,2,10,0.00
2013-7-8,87,78,72,78,73,69,94,86,69,30.20,30.12,13,2,15,0.05
2013-7-9,87,76,72,78,74,70,96,91,66,30.19,30.10,26,2,26,0.38
2013-7-10,86,77,73,79,74,72,96,91,73,30.14,29.98,18,2,18,0.69
2013-7-11,84,75,72,75,72,71,97,91,75,30.02,29.91,13,2,13,0.37
2013-7-12,75,72,71,73,71,69,97,96,88,30.06,29.90,16,2,16,0.26
2013-7-13,78,73,71,75,72,70,97,95,89,30.20,30.04,18,3,18,0.50
2013-7-14,88,77,71,77,73,70,97,87,62,30.33,30.20,16,4,16,0.07
2013-7-15,90,80,72,75,72,70,97,80,56,30.35,30.27,8,2,10,0.01
2013-7-16,94,81,72,75,72,68,94,77,52,30.31,30.20,20,2,20,0.31
2013-7-17,92,83,75,78,74,70,95,76,52,30.25,30.13,14,2,14,0.00
2013-7-18,96,83,76,78,76,74,95,79,51,30.17,30.06,9,1,9,0.00
2013-7-19,91,82,74,77,74,71,95,79,56,30.13,30.01,12,2,12,0.00
2013-7-20,89,80,75,76,74,72,92,81,61,30.07,29.95,13,3,13,0.00
2013-7-21,89,77,72,77,72,70,96,87,65,30.03,29.93,13,2,15,1.67
2013-7-22,88,78,72,77,73,71,97,87,69,29.99,29.85,15,2,15,0.00
2013-7-23,89,80,74,78,73,72,94,81,63,29.89,29.75,13,3,13,0.24
2013-7-24,94,80,70,75,72,64,95,76,45,29.87,29.75,16,2,16,1.28
2013-7-25,81,74,70,71,70,67,96,87,70,30.06,29.83,10,2,10,0.06
2013-7-26,88,75,64,68,65,61,96,73,45,30.14,30.05,13,2,13,0.00
2013-7-27,87,76,69,73,69,67,96,82,54,30.09,29.97,10,2,15,0.75
2013-7-28,88,78,70,74,71,68,97,82,56,30.04,29.95,12,2,12,0.01
2013-7-29,87,78,71,73,70,68,96,79,55,30.18,30.02,7,1,7,0.08
2013-7-30,89,77,66,71,67,62,92,71,46,30.25,30.16,13,1,13,0.00
2013-7-31,84,77,71,75,72,68,95,83,69,30.18,30.03,14,1,14,0.39
2013-8-1,84,74,70,77,71,69,97,90,72,30.05,29.89,8,1,9,0.47
2013-8-2,90,79,70,74,72,69,96,79,56,30.05,29.92,10,1,10,0.00
2013-8-3,89,79,72,77,74,70,96,84,58,30.05,29.93,13,2,13,0.74
2013-8-4,77,74,72,73,72,71,97,94,83,30.00,29.91,9,1,9,0.01
2013-8-11,92,83,72,78,75,71,97,77,60,30.14,30.03,8,2,11,0.00
2013-8-12,92,83,75,77,74,70,96,77,50,30.07,29.96,8,2,11,0.67
2013-8-13,88,80,73,79,75,71,96,85,66,29.99,29.79,15,2,17,0.63
2013-8-14,75,73,65,73,68,60,96,84,74,30.12,29.85,13,3,13,0.00
2013-8-15,75,65,61,61,58,56,87,79,54,30.19,30.10,18,2,18,0.00
2013-8-16,70,66,62,63,61,57,90,82,65,30.21,30.12,11,2,11,0.00
2013-8-17,73,68,65,71,66,61,97,93,85,30.20,30.14,11,3,11,0.30
2013-8-18,84,74,69,73,70,66,97,87,67,30.24,30.15,13,3,13,0.01
2013-8-19,74,70,67,70,68,65,96,94,87,30.23,30.12,5,1,8,0.28
2013-8-20,84,75,70,74,71,69,97,88,71,30.22,30.14,9,1,9,0.00
2013-8-21,88,76,70,77,72,69,97,90,67,30.26,30.14,15,1,15,0.05
2013-8-22,88,78,70,76,72,69,98,83,61,30.19,30.02,11,2,11,0.01
2013-8-23,88,78,70,75,71,68,97,82,60,30.08,29.95,9,2,12,0.00
2013-8-24,81,73,66,68,62,58,93,71,47,30.33,30.08,16,5,16,0.00
2013-8-25,79,70,62,64,60,53,94,73,43,30.42,30.32,19,4,19,0.00
2013-8-26,83,70,57,64,58,53,96,72,38,30.36,30.15,10,1,10,0.00
2013-8-27,87,75,65,73,66,57,91,74,58,30.17,29.99,10,2,10,0.00
2013-8-28,84,78,71,76,73,69,96,86,71,30.02,29.91,9,1,9,0.00
2013-8-29,82,77,76,74,73,72,90,88,77,29.95,29.87,11,4,11,0.00
2013-8-30,89,76,66,71,68,64,96,77,47,30.09,29.97,9,2,11,0.00
2013-8-31,89,76,68,75,70,66,97,82,57,30.01,29.90,8,1,10,0.00
2013-9-1,91,79,71,77,73,69,96,83,58,29.94,29.80,18,2,18,1.41
2013-9-2,88,78,70,76,73,69,97,86,62,29.92,29.83,10,2,10,0.00
2013-9-3,86,78,72,78,73,68,95,86,69,29.97,29.82,9,1,9,0.12
2013-9-4,89,76,68,74,70,65,96,82,58,30.11,29.97,13,2,13,0.00
2013-9-5,89,77,68,73,68,61,97,76,41,30.12,30.05,8,1,9,0.00
2013-9-6,82,72,67,65,62,58,90,72,50,30.19,30.09,13,2,13,0.00
2013-9-7,84,72,62,67,62,59,92,74,48,30.17,30.01,8,1,8,0.00
2013-9-8,90,75,65,68,64,60,91,70,38,30.02,29.93,5,1,6,0.00
2013-9-9,87,77,66,71,68,63,93,75,53,30.18,30.02,15,2,15,0.00
2013-9-10,92,79,68,72,69,66,97,75,46,30.26,30.17,9,1,9,0.00
2013-9-11,91,78,68,73,69,64,94,75,42,30.24,30.10,9,1,9,0.00
2013-9-12,90,77,69,72,70,67,94,79,53,30.11,29.83,13,2,13,0.28
2013-9-13,85,73,69,71,67,56,95,83,47,29.91,29.78,11,2,11,0.56
2013-9-14,78,68,60,58,53,48,85,60,45,30.17,29.90,17,4,17,0.00
2013-9-15,82,69,58,63,59,54,93,72,49,30.28,30.15,11,2,11,0.00
2013-9-16,86,74,67,72,65,61,96,76,45,30.21,30.06,16,2,16,0.54
2013-9-17,75,68,60,62,56,52,83,67,45,30.34,30.21,23,5,23,0.00
2013-9-18,74,62,53,56,53,50,92,73,46,30.34,30.21,10,2,11,0.00
2013-9-19,81,62,54,63,56,52,94,83,53,30.23,30.12,8,1,8,0.00
2013-9-20,69,66,63,66,63,58,96,89,73,30.13,30.00,9,2,9,0.21
2013-9-21,80,71,65,72,68,64,97,91,74,30.01,29.76,10,1,10,0.52
2013-9-22,76,68,62,68,62,58,97,81,57,29.93,29.72,17,4,17,2.43
2013-9-23,74,64,56,58,55,51,93,73,52,30.11,29.93,10,2,11,0.00
2013-9-24,59,58,56,56,54,53,93,88,85,30.11,30.11,5,2,5,0.00
2013-9-25,72,64,55,62,59,54,97,82,62,30.00,29.90,8,1,11,0.00
2013-9-26,76,68,60,62,58,50,94,74,42,30.06,29.90,11,3,15,0.00
2013-9-27,73,64,57,61,57,54,95,79,55,30.22,30.06,16,4,16,0.00
2013-9-28,72,63,54,58,55,52,95,78,55,30.30,30.20,17,3,17,0.00
2013-9-29,74,63,53,58,55,52,96,77,51,30.20,30.07,16,2,16,0.00
2013-9-30,77,63,54,61,56,52,97,81,45,30.14,30.04,8,1,10,0.00
2013-10-1,83,68,55,64,58,53,96,74,47,30.17,30.06,9,1,9,0.00
2013-10-2,86,72,62,65,61,58,89,71,45,30.16,30.08,8,1,11,0.00
2013-10-3,86,73,61,68,63,58,94,74,49,30.17,30.09,9,1,9,0.00
2013-10-4,86,73,63,69,64,61,96,77,48,30.17,30.08,10,1,10,0.00
2013-10-5,70,67,65,65,64,63,94,89,80,30.13,30.10,4,0,4,0.00
2013-10-6,86,73,65,72,68,64,97,86,61,30.10,29.96,9,1,14,0.00
2013-10-7,75,71,65,72,70,61,96,94,86,30.01,29.87,14,2,14,0.12
2013-10-8,65,60,55,61,53,47,93,78,62,30.23,29.99,23,6,23,0.56
2013-10-9,62,58,55,56,54,51,95,84,77,30.21,30.11,16,6,16,0.00
2013-10-10,61,57,54,59,55,52,95,93,91,30.11,29.97,17,5,17,0.03
2013-10-11,68,62,59,62,60,58,96,91,80,30.01,29.94,10,2,10,0.00
2013-10-12,68,64,62,65,62,59,95,92,87,30.11,29.98,7,2,7,0.00
2013-10-13,67,64,62,64,63,61,97,94,89,30.22,30.10,9,4,9,0.08
2013-10-14,66,63,58,62,61,57,97,93,87,30.26,30.20,14,5,14,0.00
2013-10-15,70,62,54,62,58,53,96,87,72,30.23,30.09,10,3,12,0.00
2013-10-16,71,65,62,64,62,60,96,90,78,30.10,30.00,4,1,4,0.00
2013-10-17,76,68,60,67,63,59,96,86,67,30.01,29.88,11,2,11,0.00
2013-10-18,67,63,59,65,56,48,95,76,59,30.08,29.91,10,2,10,0.00
2013-10-19,69,64,61,65,61,56,96,90,83,30.01,29.86,7,1,7,0.00
2013-10-20,66,57,47,59,48,41,95,74,48,30.16,29.94,15,2,15,0.00
2013-10-21,70,55,42,51,47,41,96,75,44,30.21,30.05,8,1,8,0.00
2013-10-22,63,59,54,59,55,49,95,86,78,30.06,29.85,8,1,8,0.00
2013-10-23,67,59,48,58,49,34,97,73,37,30.05,29.73,17,3,20,0.00
2013-10-24,59,48,38,42,36,32,88,66,42,30.24,30.04,11,2,13,0.00
2013-10-25,56,47,38,38,33,28,87,59,36,30.42,30.23,12,3,12,0.00
2013-10-26,60,46,32,37,34,30,93,66,38,30.42,30.14,15,2,15,0.00
2013-10-27,66,53,44,44,40,36,85,63,42,30.18,30.10,12,2,12,0.00
2013-10-28,66,57,49,56,51,45,95,82,65,30.31,30.16,4,0,4,0.00
2013-10-29,74,60,51,58,54,49,97,83,55,30.38,30.29,6,1,6,0.00
2013-10-30,74,64,54,60,57,52,97,81,58,30.34,30.20,9,1,9,0.00
2013-10-31,75,65,56,64,58,54,96,80,55,30.24,29.98,14,2,14,0.00
2013-11-1,68,67,67,65,65,64,92,91,90,29.98,29.89,13,3,13,0.00
2013-11-10,73,57,44,44,37,30,74,50,26,30.28,30.11,11,3,15,0.00
2013-11-11,62,49,35,36,31,29,87,52,31,30.41,30.20,10,2,15,1.19
2013-11-12,61,45,35,40,34,19,90,65,42,30.46,30.11,22,3,22,0.00
2013-11-13,45,35,28,26,20,17,84,55,33,30.59,30.46,16,3,16,0.00
2013-11-14,58,37,30,26,23,21,77,60,26,30.54,30.40,13,2,13,0.00
2013-11-15,64,51,37,51,38,22,83,63,41,30.41,30.26,6,1,9,0.00
2013-11-16,71,60,54,59,55,48,95,85,65,30.31,30.23,8,2,8,0.00
2013-11-17,72,61,55,66,58,54,97,91,67,30.25,29.94,12,2,12,0.14
2013-11-18,76,67,56,67,55,32,96,69,39,29.99,29.82,33,3,33,0.03
2013-11-19,56,50,43,32,30,28,61,47,36,30.36,29.99,19,5,19,0.00
2013-11-20,52,45,39,40,34,29,83,65,54,30.49,30.36,19,6,19,0.00
2013-11-21,64,52,44,51,45,39,88,78,62,30.55,30.43,14,3,14,0.00
2013-11-22,71,61,50,62,56,48,96,85,71,30.44,30.13,14,2,14,0.00
2013-11-23,62,58,43,60,54,23,97,86,41,30.22,30.07,12,2,14,0.02
2013-11-24,43,36,28,25,15,2,53,43,24,30.61,30.21,18,6,18,0.00
2013-11-25,44,32,21,17,12,8,78,45,23,30.67,30.44,11,1,11,0.00
2013-11-26,66,48,37,65,40,15,97,77,41,30.44,29.61,18,5,18,0.64
2013-11-27,66,42,30,65,41,20,97,94,66,30.22,29.54,14,4,17,1.22
2013-11-28,46,34,25,25,21,17,79,61,37,30.56,30.22,12,2,12,0.00
2013-11-29,51,39,28,29,26,23,85,62,39,30.69,30.54,15,3,15,0.00
2013-11-30,49,39,31,35,30,25,84,72,57,30.70,30.43,14,4,16,0.00
2013-12-1,60,42,32,43,35,30,93,79,45,30.43,30.08,8,1,8,0.00
2013-12-2,60,49,40,45,42,37,92,78,49,30.08,29.88,7,0,7,0.00
2013-12-3,56,48,40,48,42,37,91,78,65,30.05,29.92,9,1,9,0.00
2013-12-4,64,57,52,58,53,47,96,87,78,30.15,30.03,8,1,8,0.00
2013-12-5,68,61,54,64,60,53,98,94,88,30.19,30.09,12,2,12,0.00
2013-12-6,78,70,64,66,64,62,94,82,65,30.13,30.02,22,5,22,0.00
2013-12-7,69,51,43,65,46,33,94,84,69,30.50,30.03,18,7,18,0.24
2013-12-8,43,36,34,34,33,31,96,88,66,30.52,30.35,20,6,20,0.10
2013-12-9,47,40,34,47,40,33,98,97,96,30.35,30.13,8,1,8,0.11
2013-12-10,49,45,31,48,42,28,98,92,67,30.39,29.96,15,2,15,0.53
2013-12-11,49,37,26,30,27,22,94,69,42,30.53,30.36,9,1,9,0.00
2013-12-12,45,36,28,29,26,14,83,68,30,30.48,30.33,12,2,12,0.00
2013-12-13,52,38,26,29,22,17,82,54,32,30.47,30.34,11,2,12,0.00
2013-12-14,47,43,40,44,36,27,97,79,51,30.37,29.83,17,3,17,0.76
2013-12-15,55,44,36,46,38,30,97,82,53,30.13,29.76,13,3,13,0.03
2013-12-16,57,43,32,37,33,28,84,68,43,30.24,30.13,12,2,12,0.00
2013-12-17,62,49,36,40,37,33,91,65,39,30.18,29.94,24,3,24,0.00
2013-12-18,51,43,37,38,24,18,74,48,28,30.36,30.08,13,3,13,0.00
2013-12-19,63,47,34,33,26,22,66,46,25,30.40,30.29,16,3,16,0.00
2013-12-20,67,54,44,56,45,33,89,74,51,30.31,30.17,11,3,16,0.00
2013-12-21,73,62,51,66,57,49,95,86,70,30.21,30.10,17,3,17,0.00
2013-12-22,77,70,64,68,66,62,96,87,67,30.14,30.07,17,5,19,0.18
2013-12-23,70,62,47,68,60,42,97,93,84,30.20,30.03,14,4,18,1.65
2013-12-24,47,42,31,42,31,16,92,67,49,30.51,30.15,18,5,18,0.00
2013-12-25,41,31,25,22,15,11,76,52,32,30.62,30.46,17,3,17,0.00
2013-12-26,52,38,30,36,30,22,89,74,53,30.46,30.32,7,1,7,0.00
2013-12-27,52,41,34,28,24,21,70,51,33,30.52,30.42,8,2,8,0.00
2013-12-28,60,45,30,34,29,24,85,55,29,30.47,30.21,7,1,7,0.00
2013-12-29,64,52,45,63,49,33,98,91,50,30.21,29.73,18,5,24,1.71
2013-12-30,55,47,40,45,42,36,97,82,59,30.19,29.97,9,1,9,0.01
2013-12-31,50,44,39,37,33,24,85,65,36,30.42,30.16,14,3,14,0.00
2014-1-1,50,42,34,36,29,24,80,62,38,30.49,30.21,10,1,10,0.00
2014-1-2,48,45,40,46,41,32,96,86,64,30.22,29.63,14,2,14,0.27